Date Time,Air Temp,Sky Temp,Clarity,Light Level,Rain Sensor,Readings
2011-10-27 00:00:34,19.5,3.9,15.7,0.1,2.7,111
2011-10-27 00:05:34,19.4,3.5,16.0,0.1,2.7,112
2011-10-27 00:10:34,19.4,4.9,14.5,0.1,2.7,111
2011-10-27 00:15:34,19.4,5.4,14.0,0.1,2.7,112
2011-10-27 00:20:34,19.4,4.3,15.1,0.1,2.7,112
2011-10-27 00:25:34,19.4,4.4,15.0,0.1,2.7,111
2011-10-27 00:30:34,19.4,4.8,14.5,0.1,2.6,112
2011-10-27 00:35:34,19.4,4.9,14.5,0.1,2.6,112
2011-10-27 00:40:34,19.4,5.3,14.1,0.1,2.6,112
2011-10-27 00:45:34,19.4,5.4,13.9,0.1,2.5,112
2011-10-27 00:50:34,19.4,5.9,13.5,0.1,2.5,111
2011-10-27 00:55:34,19.4,6.7,12.7,0.1,2.4,111
2011-10-27 01:00:34,19.4,6.2,13.2,0.1,2.4,112
2011-10-27 01:05:34,19.4,6.6,12.8,0.0,2.4,111
2011-10-27 01:10:34,19.5,6.9,12.6,0.0,2.5,112
2011-10-27 01:15:34,19.4,7.0,12.4,0.0,4.4,111
2011-10-27 01:20:34,19.3,7.6,11.7,0.0,6.0,111
2011-10-27 01:25:34,19.1,12.7,6.4,0.0,8.6,112
2011-10-27 01:30:34,19.0,12.7,6.2,0.0,8.6,111
2011-10-27 01:35:34,18.9,12.3,6.6,0.0,7.0,111
2011-10-27 01:40:34,18.8,9.8,9.0,0.0,8.0,111
2011-10-27 01:45:34,18.8,9.3,9.5,0.0,8.5,112
2011-10-27 01:50:34,18.8,12.9,6.0,0.0,12.4,111
2011-10-27 01:55:34,18.8,12.4,6.4,0.0,5.8,111
2011-10-27 02:00:34,18.6,12.3,6.3,0.0,4.9,111
2011-10-27 02:05:34,18.6,10.2,8.4,0.0,6.1,112
2011-10-27 02:10:34,18.5,6.6,11.9,0.0,4.8,111
2011-10-27 02:15:34,18.5,6.4,12.1,0.0,5.1,112
2011-10-27 02:20:34,18.4,6.3,12.1,0.0,6.2,111
2011-10-27 02:25:34,18.4,5.8,12.6,0.0,8.8,112
2011-10-27 02:30:34,18.4,8.0,10.4,0.0,14.7,112
2011-10-27 02:35:34,18.2,12.5,5.6,0.0,33.1,111
2011-10-27 02:40:34,18.2,10.3,7.9,0.1,14.3,112
2011-10-27 02:45:34,18.3,6.2,12.1,0.0,5.7,111
2011-10-27 02:50:34,18.2,5.3,12.9,0.1,4.3,112
2011-10-27 02:55:34,18.1,5.2,12.9,0.0,4.9,111
2011-10-27 03:00:34,18.1,5.4,12.7,0.0,5.2,112
2011-10-27 03:05:34,18.1,5.7,12.4,0.0,9.9,111
2011-10-27 03:10:34,18.0,6.3,11.7,0.0,11.5,112
2011-10-27 03:15:34,18.1,6.0,12.1,0.0,11.2,111
2011-10-27 03:20:34,18.1,7.0,11.1,0.0,14.6,112
2011-10-27 03:25:34,18.0,6.2,11.9,0.0,12.7,111
2011-10-27 03:30:34,18.0,12.1,5.9,0.0,16.5,111
2011-10-27 03:35:34,18.1,12.7,5.4,0.0,19.9,112
2011-10-27 03:40:34,18.1,12.7,5.4,0.0,23.5,111
2011-10-27 03:45:34,18.1,12.9,5.2,0.0,22.6,111
2011-10-27 03:50:34,18.2,13.5,4.6,0.0,22.4,112
2011-10-27 03:55:34,18.2,13.5,4.7,0.0,17.7,111
2011-10-27 04:00:34,18.1,13.0,5.1,0.0,17.4,111
2011-10-27 04:05:34,18.0,12.0,6.0,0.0,14.4,112
2011-10-27 04:10:34,18.0,10.7,7.3,0.0,13.1,111
2011-10-27 04:15:34,18.0,12.3,5.7,0.0,17.2,112
2011-10-27 04:20:34,17.9,12.5,5.4,0.0,9.2,111
2011-10-27 04:25:34,17.9,12.8,5.1,0.0,5.9,111
2011-10-27 04:30:34,17.8,11.7,6.0,0.1,4.1,112
2011-10-27 04:35:34,17.7,11.2,6.5,0.1,3.9,111
2011-10-27 04:40:34,17.6,7.7,9.8,0.1,3.1,112
2011-10-27 04:45:34,17.6,5.0,12.5,0.1,2.8,111
2011-10-27 04:50:34,17.6,5.1,12.5,0.1,3.7,112
2011-10-27 04:55:34,17.6,5.2,12.4,0.1,4.0,112
2011-10-27 05:00:34,17.7,6.7,11.0,0.1,4.1,111
2011-10-27 05:05:34,17.7,4.4,13.3,0.1,3.1,111
2011-10-27 05:10:34,17.6,4.8,12.8,0.0,2.5,112
2011-10-27 05:15:34,17.6,5.2,12.4,0.0,2.7,111
2011-10-27 05:20:34,17.7,5.4,12.3,0.1,2.5,112
2011-10-27 05:25:34,17.8,5.3,12.6,0.1,2.4,112
2011-10-27 05:30:34,18.0,5.3,12.6,0.1,4.5,112
2011-10-27 05:35:34,18.0,5.0,13.0,0.1,6.8,111
2011-10-27 05:40:34,18.0,5.2,12.8,0.1,7.9,112
2011-10-27 05:45:34,18.0,4.8,13.2,0.1,5.2,111
2011-10-27 05:50:34,17.9,6.7,11.2,0.1,5.1,112
2011-10-27 05:55:34,18.0,8.3,9.6,0.1,8.1,112
2011-10-27 06:00:34,18.0,9.3,8.7,0.1,15.9,111
2011-10-27 06:05:34,18.0,10.4,7.6,0.1,10.6,112
2011-10-27 06:10:34,17.9,9.8,8.2,0.1,11.4,111
2011-10-27 06:15:34,17.9,9.8,8.0,0.1,10.6,112
2011-10-27 06:20:34,17.8,11.0,6.8,0.1,9.5,111
2011-10-27 06:25:34,17.8,11.3,6.4,0.1,8.9,111
2011-10-27 06:30:34,17.7,11.8,6.0,0.1,5.5,111
2011-10-27 06:35:34,17.7,11.6,6.1,0.1,4.0,112
2011-10-27 06:40:34,17.6,9.4,8.2,0.1,5.5,111
2011-10-27 06:45:34,17.7,6.4,11.2,0.1,5.7,112
2011-10-27 06:50:34,17.7,7.5,10.1,0.1,5.7,111
2011-10-27 06:55:34,17.7,10.8,6.9,0.2,6.2,111
2011-10-27 07:00:34,17.6,8.1,9.6,0.4,5.9,112
2011-10-27 07:05:34,17.5,3.2,14.3,0.9,2.5,111
2011-10-27 07:10:34,17.5,2.2,15.3,2.0,2.3,111
2011-10-27 07:15:34,17.6,2.5,15.1,4.0,2.3,111
2011-10-27 07:20:34,17.8,3.0,14.8,7.5,2.4,111
2011-10-27 07:25:34,18.0,4.2,13.8,11.7,2.3,112
2011-10-27 07:30:34,18.1,7.4,10.7,13.5,2.3,111
2011-10-27 07:35:34,18.3,7.7,10.6,18.4,2.3,112
2011-10-27 07:40:34,18.4,7.6,10.8,22.3,2.2,111
2011-10-27 07:45:34,18.5,6.4,12.1,26.7,2.0,112
2011-10-27 07:50:34,18.5,4.8,13.7,29.0,2.0,112
2011-10-27 07:55:34,18.5,5.2,13.3,29.8,3.3,111
2011-10-27 08:00:34,18.5,5.5,12.9,30.3,3.4,112
2011-10-27 08:05:34,18.4,5.5,12.9,30.6,5.1,112
2011-10-27 08:10:34,18.3,6.5,11.9,30.9,5.0,111
2011-10-27 08:15:34,18.3,7.4,10.9,31.2,9.4,112
2011-10-27 08:20:34,18.2,9.6,8.6,31.3,11.7,111
2011-10-27 08:25:34,18.2,9.6,8.6,31.4,5.7,112
2011-10-27 08:30:34,18.1,9.0,9.1,31.4,5.5,111
2011-10-27 08:35:34,18.1,10.9,7.1,31.4,9.5,112
2011-10-27 08:40:34,18.1,12.2,5.9,31.6,10.4,111
2011-10-27 08:45:34,18.1,12.3,5.8,31.7,11.6,112
2011-10-27 08:50:34,18.1,12.5,5.6,31.8,9.5,111
2011-10-27 08:55:34,18.1,12.3,5.8,31.9,14.6,111
2011-10-27 09:00:34,18.2,12.7,5.5,31.9,15.2,112
2011-10-27 09:05:34,18.2,12.5,5.7,31.9,13.0,111
2011-10-27 09:10:34,18.3,12.6,5.7,31.8,17.0,111
2011-10-27 09:15:34,18.2,12.0,6.2,32.0,5.2,112
2011-10-27 09:20:34,18.1,10.7,7.4,31.9,2.9,112
2011-10-27 09:25:34,18.1,7.8,10.2,32.0,2.7,112
2011-10-27 09:30:34,18.1,7.1,11.0,32.0,6.4,111
2011-10-27 09:35:34,18.2,6.8,11.4,32.0,6.4,111
2011-10-27 09:40:34,18.2,7.0,11.2,32.1,3.0,112
2011-10-27 09:45:34,18.2,7.4,10.8,32.1,3.1,112
2011-10-27 09:50:34,18.3,7.3,11.0,32.0,2.4,111
2011-10-27 09:55:34,18.3,7.5,10.7,32.2,2.5,111
2011-10-27 10:00:34,18.5,7.3,11.2,32.4,2.5,112
2011-10-27 10:05:34,18.8,6.9,11.9,32.4,2.7,111
2011-10-27 10:10:34,18.9,7.0,11.9,32.4,1.9,112
2011-10-27 10:15:34,19.1,7.3,11.8,32.4,3.6,111
2011-10-27 10:20:34,19.2,6.9,12.3,32.4,4.9,112
2011-10-27 10:25:34,19.1,9.3,9.8,32.3,2.5,111
2011-10-27 10:30:34,19.1,7.6,11.5,32.2,2.2,112
2011-10-27 10:35:34,19.1,7.3,11.7,32.2,2.1,111
2011-10-27 10:40:34,19.1,7.8,11.2,32.1,2.1,112
2011-10-27 10:45:34,19.1,7.8,11.2,32.1,2.1,111
2011-10-27 10:50:34,19.1,7.3,11.8,32.2,2.2,111
2011-10-27 10:55:34,19.1,7.2,11.9,32.2,2.2,112
2011-10-27 11:00:34,19.2,7.4,11.8,32.3,2.2,111
2011-10-27 11:05:34,19.3,7.4,11.9,32.3,2.3,112
2011-10-27 11:10:34,19.4,7.3,12.1,32.3,2.3,111
2011-10-27 11:15:34,19.5,7.4,12.1,32.3,2.3,112
2011-10-27 11:20:34,19.5,7.3,12.2,32.3,2.3,111
2011-10-27 11:25:34,19.6,7.0,12.6,32.4,2.3,112
2011-10-27 11:30:34,19.7,7.5,12.2,32.4,2.4,111
2011-10-27 11:35:34,19.9,8.0,11.8,32.3,2.6,111
2011-10-27 11:40:34,19.9,8.2,11.7,32.3,2.6,112
2011-10-27 11:45:34,19.9,8.3,11.6,32.4,2.6,111
2011-10-27 11:50:34,19.9,8.7,11.2,32.4,2.6,111
2011-10-27 11:55:34,20.0,8.6,11.4,32.4,2.7,112
2011-10-27 12:00:34,20.1,8.8,11.3,32.4,2.7,112
2011-10-27 12:05:34,20.3,8.8,11.5,32.5,2.5,111
2011-10-27 12:10:34,20.5,9.5,10.9,32.4,2.3,111
2011-10-27 12:15:34,20.5,9.7,10.9,32.4,2.3,112
2011-10-27 12:20:34,20.5,9.2,11.3,32.4,2.3,111
2011-10-27 12:25:34,20.5,8.3,12.1,32.5,2.3,111
2011-10-27 12:30:34,20.5,8.4,12.1,32.4,2.3,112
2011-10-27 12:35:34,20.5,9.1,11.4,32.4,2.3,111
2011-10-27 12:40:34,20.5,7.5,13.0,32.5,2.3,112
2011-10-27 12:45:34,20.6,8.1,12.5,32.5,2.3,111
2011-10-27 12:50:34,20.8,9.2,11.6,32.5,2.3,112
2011-10-27 12:55:34,20.4,9.4,11.1,32.4,2.3,111
2011-10-27 13:00:34,20.7,9.5,11.2,32.4,2.5,112
2011-10-27 13:05:34,20.5,8.2,12.4,32.5,6.6,111
2011-10-27 13:10:34,20.3,8.4,11.9,32.5,4.6,111
2011-10-27 13:15:34,20.2,8.5,11.7,32.4,5.4,111
2011-10-27 13:20:34,20.1,8.6,11.4,32.4,3.6,112
2011-10-27 13:25:34,19.8,9.0,10.8,32.3,3.3,111
2011-10-27 13:30:34,19.6,8.9,10.7,32.3,6.1,112
2011-10-27 13:35:34,19.5,9.0,10.5,32.3,9.6,111
2011-10-27 13:40:35,19.5,8.5,11.0,32.3,10.3,112
2011-10-27 13:45:34,19.4,10.7,8.7,32.3,18.9,111
2011-10-27 13:50:35,19.4,13.5,5.9,32.3,16.4,111
2011-10-27 13:55:35,19.2,14.0,5.2,32.2,14.0,111
2011-10-27 14:00:35,19.3,14.2,5.1,32.3,9.3,112
2011-10-27 14:05:35,19.2,14.6,4.6,32.3,15.7,111
2011-10-27 14:10:35,19.3,13.5,5.8,32.3,15.2,112
2011-10-27 14:15:35,19.2,13.8,5.4,32.3,10.4,111
2011-10-27 14:20:35,19.3,14.0,5.2,32.3,6.6,111
2011-10-27 14:25:35,19.2,13.6,5.6,32.2,4.3,111
2011-10-27 14:30:35,19.1,12.1,7.0,32.1,3.0,112
2011-10-27 14:35:35,19.1,9.7,9.5,32.0,2.7,111
2011-10-27 14:40:35,19.1,9.0,10.1,32.1,2.2,112
2011-10-27 14:45:35,19.2,9.5,9.7,32.2,2.3,111
2011-10-27 14:50:35,19.5,9.0,10.4,32.3,2.3,112
2011-10-27 14:55:35,19.7,8.9,10.8,32.3,2.4,111
2011-10-27 15:00:35,19.8,8.6,11.3,32.3,2.6,111
2011-10-27 15:05:35,19.9,8.8,11.2,32.3,2.7,111
2011-10-27 15:10:35,20.0,8.9,11.1,32.3,2.7,112
2011-10-27 15:15:35,20.1,8.9,11.2,32.3,3.5,111
2011-10-27 15:20:35,20.1,8.8,11.3,32.4,2.7,111
2011-10-27 15:25:35,20.2,8.4,11.7,32.2,2.7,111
2011-10-27 15:30:35,20.2,8.5,11.6,32.2,2.7,112
2011-10-27 15:35:35,20.1,8.7,11.5,32.1,2.7,111
2011-10-27 15:40:35,20.1,8.6,11.5,32.1,5.3,112
2011-10-27 15:45:35,20.0,9.0,11.1,32.2,3.7,111
2011-10-27 15:50:35,19.9,8.9,11.0,32.1,3.2,112
2011-10-27 15:55:35,19.8,8.9,10.9,31.8,2.8,111
2011-10-27 16:00:35,19.7,9.1,10.7,31.9,3.2,111
2011-10-27 16:05:35,19.8,9.3,10.5,32.0,11.6,112
2011-10-27 16:10:35,19.6,8.6,11.1,32.0,2.5,111
2011-10-27 16:15:35,19.5,9.2,10.4,32.0,2.3,111
2011-10-27 16:20:35,19.5,9.4,10.1,32.0,2.3,112
2011-10-27 16:25:35,19.6,9.7,9.9,31.9,2.3,111
2011-10-27 16:30:35,19.7,9.8,9.9,31.8,2.4,112
2011-10-27 16:35:35,19.8,10.2,9.6,32.0,2.5,112
2011-10-27 16:40:35,19.9,10.3,9.6,31.9,2.6,112
2011-10-27 16:45:35,20.0,10.4,9.6,31.7,2.7,111
2011-10-27 16:50:35,20.0,10.3,9.7,31.6,2.7,112
2011-10-27 16:55:35,20.1,10.3,9.8,31.7,2.7,111
2011-10-27 17:00:35,20.1,10.4,9.8,31.7,2.7,112
2011-10-27 17:05:35,20.2,10.3,9.8,31.5,2.6,112
2011-10-27 17:10:35,20.2,10.3,9.9,31.4,2.5,111
2011-10-27 17:15:35,20.2,10.2,9.9,31.4,2.3,112
2011-10-27 17:20:35,20.2,10.3,9.8,31.4,2.3,111
2011-10-27 17:25:35,20.2,10.3,9.9,31.4,2.4,112
2011-10-27 17:30:35,20.2,10.3,9.9,30.9,2.3,111
2011-10-27 17:35:35,20.2,10.2,9.9,30.2,2.3,112
2011-10-27 17:40:35,20.1,10.2,9.9,29.4,2.3,111
2011-10-27 17:45:35,20.1,10.2,9.9,28.3,2.3,113
2011-10-27 17:50:35,20.1,10.2,9.8,26.7,2.3,111
2011-10-27 17:55:35,20.0,10.3,9.7,22.8,2.3,112
2011-10-27 18:00:35,20.0,10.0,10.0,18.9,2.7,112
2011-10-27 18:05:35,20.0,10.6,9.4,15.7,2.6,111
2011-10-27 18:10:35,19.9,10.4,9.5,12.3,2.4,112
2011-10-27 18:15:35,19.9,10.4,9.5,8.6,2.3,111
2011-10-27 18:20:35,19.9,10.4,9.5,4.5,2.3,112
2011-10-27 18:25:35,20.0,10.9,9.1,1.8,2.3,111
2011-10-27 18:30:35,20.0,11.1,8.9,0.7,2.3,111
2011-10-27 18:35:35,19.8,10.9,8.8,0.3,2.6,111
2011-10-27 18:40:35,20.1,9.9,10.2,0.1,3.7,112
2011-10-27 18:45:35,19.9,10.0,9.9,0.1,3.1,111
2011-10-27 18:50:35,19.7,9.6,10.1,0.1,6.5,112
2011-10-27 18:55:35,19.7,16.0,3.7,0.0,29.9,112
2011-10-27 19:00:35,19.7,14.7,5.1,0.0,15.1,111
2011-10-27 19:05:35,19.3,14.0,5.3,0.0,4.5,111
2011-10-27 19:10:35,19.1,11.1,8.0,0.0,2.4,112
2011-10-27 19:15:35,19.2,13.5,5.7,0.0,11.4,111
2011-10-27 19:20:35,19.5,17.3,2.2,0.0,24.4,112
2011-10-27 19:25:35,19.6,15.6,3.9,0.0,16.3,111
2011-10-27 19:30:35,19.3,14.4,4.9,0.0,8.2,111
2011-10-27 19:35:35,19.1,10.2,8.9,0.0,3.1,112
2011-10-27 19:40:35,19.1,10.2,8.9,0.0,2.4,112
2011-10-27 19:45:35,19.3,10.7,8.6,0.0,2.6,111
2011-10-27 19:50:35,19.4,10.6,8.8,0.0,2.7,112
2011-10-27 19:55:35,19.5,10.8,8.7,0.0,2.7,111
2011-10-27 20:00:35,19.6,10.6,9.0,0.0,2.7,112
2011-10-27 20:05:35,19.6,11.1,8.6,0.0,2.7,111
2011-10-27 20:10:35,19.8,11.4,8.3,0.0,2.6,111
2011-10-27 20:15:35,19.9,11.5,8.4,0.0,2.4,112
2011-10-27 20:20:35,19.9,11.3,8.6,0.0,2.4,111
2011-10-27 20:25:35,19.9,11.7,8.2,0.0,2.3,111
2011-10-27 20:30:35,20.0,11.8,8.2,0.0,2.3,112
2011-10-27 20:35:35,20.1,11.6,8.4,0.0,2.3,111
2011-10-27 20:40:35,20.0,11.5,8.5,0.0,2.3,111
2011-10-27 20:45:35,20.0,11.7,8.3,0.0,2.3,112
2011-10-27 20:50:35,20.0,11.3,8.7,0.0,2.3,111
2011-10-27 20:55:35,20.0,11.3,8.7,0.0,2.3,111
2011-10-27 21:00:35,19.9,11.1,8.8,0.0,2.3,111
2011-10-27 21:05:35,20.0,11.8,8.2,0.0,2.3,112
2011-10-27 21:10:35,20.1,11.5,8.6,0.0,2.3,111
2011-10-27 21:15:35,20.2,11.5,8.8,0.0,2.3,112
2011-10-27 21:20:35,20.2,11.3,8.9,0.0,2.3,111
2011-10-27 21:25:35,20.1,11.6,8.5,0.0,2.3,111
2011-10-27 21:30:35,20.1,11.0,9.1,0.0,2.3,111
2011-10-27 21:35:35,20.1,11.3,8.8,0.0,2.3,112
2011-10-27 21:40:35,20.1,11.6,8.6,0.0,2.3,111
2011-10-27 21:45:35,20.1,12.0,8.2,0.0,2.3,112
2011-10-27 21:50:35,20.2,11.7,8.5,0.0,2.3,111
2011-10-27 21:55:35,20.1,11.7,8.5,0.0,2.3,111
2011-10-27 22:00:35,20.1,11.7,8.5,0.0,2.3,112
2011-10-27 22:05:35,20.1,11.8,8.3,0.0,2.3,111
2011-10-27 22:10:35,19.8,11.1,8.7,0.0,2.3,111
2011-10-27 22:15:35,20.2,11.7,8.5,0.0,2.3,111
2011-10-27 22:20:35,20.3,11.9,8.4,0.0,2.3,112
2011-10-27 22:25:35,20.2,11.7,8.5,0.0,2.3,112
2011-10-27 22:30:35,20.2,11.6,8.6,0.0,2.3,111
2011-10-27 22:35:35,20.2,12.0,8.3,0.0,2.6,112
2011-10-27 22:40:35,20.3,12.2,8.1,0.0,2.4,111
2011-10-27 22:45:35,20.4,11.9,8.4,0.0,3.0,112
2011-10-27 22:50:35,20.5,11.8,8.7,0.0,2.5,112
2011-10-27 22:55:35,20.6,11.5,9.0,0.0,3.1,111
2011-10-27 23:00:35,20.5,11.4,9.1,0.0,3.5,111
2011-10-27 23:05:35,20.4,11.4,9.0,0.0,3.0,112
2011-10-27 23:10:35,20.3,11.1,9.2,0.0,2.3,111
2011-10-27 23:15:35,20.1,10.3,9.8,0.0,2.4,111
2011-10-27 23:20:35,20.0,10.1,10.0,0.0,2.7,112
2011-10-27 23:25:35,20.1,10.6,9.6,0.0,2.7,111
2011-10-27 23:30:35,20.1,10.5,9.7,0.0,2.7,112
2011-10-27 23:35:35,19.9,10.3,9.7,0.0,2.7,111
2011-10-27 23:40:35,19.8,10.0,9.8,0.0,2.7,112
2011-10-27 23:45:35,19.8,10.4,9.5,0.0,2.7,112
2011-10-27 23:50:35,19.9,10.6,9.4,0.0,2.7,111
2011-10-27 23:55:35,19.9,9.7,10.2,0.0,2.7,112
